User: anonymous   Login
Location: Biltmore Gardens
(41.6070°N, 83.4666°W)
Time: 11:55:31
(UTC+00:00)
Language:

BREEZE-M DEB (TANK) - Orbit

View from above orbital plane
View from above orbital plane
View from above satellite
View from above satellite

Ground track
Ground track

The orbit data is extracted from the following two-line orbital elements,

1 33279U 08039B   20271.13784743 -.00000046 +00000-0 +72462-4 0  9999
2 33279 045.9568 163.6589 4843546 182.3421 174.2226 05.71744931250974
Epoch (UTC): 27 September 2020 03:18:30
Eccentricity: 0.4843546
inclination: 45.9568°
perigee height: 434 km
apogee height: 13231 km
right ascension of ascending node: 163.6589°
argument of perigee: 182.3421°
revolutions per day: 5.71744931
mean anomaly at epoch: 174.2226°
orbit number at epoch: 25097

The dashed part of the orbit path shows where the satellite is in the earth's shadow,  

DLR